"Pseudo-MPEC" for A10DMjY = A10DOip = ZTF0NUM

Created 2021 Dec 13 22:54:23 UT using Find_Orb

Click here for an explanation of pseudo-MPECs

 
 Astrometry: 
     ZTF0NUM* C2021 11 14.25745403 23 53.80 +07 34 51.7    ~BEEH 16.35gUNEOCPI41
     ZTF0NUM  C2021 11 14.25780103 24 01.32 +07 35 43.4    ~BEEH 16.35gUNEOCPI41
     ZTF0NUM  C2021 11 14.29703703 37 36.91 +09 05 14.8    ~BEEH 16.57gUNEOCPI41
     ZTF0NUM  C2021 11 14.29738403 37 43.71 +09 06 00.0    ~BEEH 16.57gUNEOCPI41
     A10DMjY* C2021 12 09.40001105 57 09.49 +18 34 04.3    ~CA2N 16.33oVNEOCPT08
     A10DMjY  C2021 12 09.41771206 01 38.58 +18 51 48.3    ~CA2N 16.32oVNEOCPT08
     A10DMjY  C2021 12 09.42048306 02 20.94 +18 54 28.5    ~CA2N 16.31oVNEOCPT08
     A10DMjY  C2021 12 09.42519006 03 32.64 +18 58 54.7    ~CA2N 16.29oVNEOCPT08
     A10DMjY  C2021 12 09.42657106 03 53.41 +19 00 10.7    ~CA2N 16.29oVNEOCPT08
     A10DMjY  C2021 12 09.43027206 04 49.62 +19 03 33.4    ~CA2N 16.40oVNEOCPT08
     A10DMjY  C2021 12 09.45159406 10 15.45 +19 21 51.6    ~CA2N 16.50oVNEOCPT08
     A10DOip* C2021 12 13.42815905 16 09.60 +17 05 02.3    ~CDMe 15.61oVNEOCPT08
     A10DOip  C2021 12 13.43152205 17 01.02 +17 09 01.1    ~CDMe 15.85oVNEOCPT08
     A10DOip  C2021 12 13.46350305 25 03.50 +17 43 17.2    ~CDMe 15.79oVNEOCPT08
     A10DOip  C2021 12 13.47129505 26 59.64 +17 50 40.3    ~CDMe 15.83oVNEOCPT08
     A10DOip  C2021 12 13.49371405 32 34.65 +18 10 02.6    ~CDMe 15.65oVNEOCPT08
     A10DOip  C2021 12 13.49749805 33 31.29 +18 13 02.0    ~CDMe 15.78oVNEOCPT08
     A10DOip  C2021 12 13.50284105 34 51.56 +18 17 08.1    ~CDMe 15.72oVNEOCPT08

Station data:
(I41) Palomar Mountain--ZTF  (N33.357340 W116.859780)  US/California.
   Observers B. T. Bolin, Z. T. F. Collaboration. Measurers B. T. Bolin,
   Z.-Y. Lin, F. J. Masci. 1.2-m f/2.4 Schmidt.
(T08) ATLAS-MLO, Mauna Loa  (N19.536152 W155.576050)  US/Hawaii.  Observers
   L. Denneau, A. Heinze, H. Weiland, J. Tonry, H. Flewelling, A.
   Fitzsimmons, D. Young, B. Stalder. Measurers L. Denneau, A. Heinze, J.
   Tonry. 0.5-m f/2.0 Schmidt + CCD.

Orbital elements:  A10DMjY = A10DOip = ZTF0NUM
   Perigee 2021 Dec 13.021193 +/- 0.000543 TT =  0:30:31.0 (JD 2459561.521193)
A1: 1.24e-5 +/- 5.02e-8   A2: -3.74e-7 +/- 1.9e-8   A3: 4.15e-7 +/- 9.67e-9 AU/day^2 [1/r^2]
Epoch 2021 Dec 13.0 TT = JDT 2459561.5                        Find_Orb
M 352.598696026 +/- 0.18            (J2000 equator)
n 349.229877636 +/- 0.00319         Peri.  245.257166 +/- 0.038
a 43105.15836 +/- 0.262             Node    24.779835 +/- 0.008
e   0.71703421 +/- 0.000133         Incl.   20.925060 +/- 0.0023
P1484.38m/1.031d           H 32.5   G  0.15   U  8.9
q 12197.28490 +/- 5.78    Q 74013.03182 +/- 5.49
From 18 observations 2021 Nov. 14-Dec. 13; mean residual 5".163
Residuals in arcseconds: 
211114 I41 7.51- 2.88-    211209 T08 3.41- .753-    211213 T08 5.33- 1.51-    
211114 I41 8.13- 2.52-    211209 T08 1.08+ .271+    211213 T08 3.37+ .920+    
211114 I41 8.85+ 1.84+    211209 T08 1.48- .394-    211213 T08 .790+ .091+    
211114 I41 7.48+ 3.19+    211209 T08 .881- .596-    211213 T08 7.19+ 1.41+    
211209 T08 13.0- 2.61-    211209 T08 10.7+ 1.84+    211213 T08 7.40+ 1.36+    
211209 T08 8.28- 2.05-    211213 T08 5.97- 1.76-    211213 T08 9.71+ 1.97+    

Ephemerides (geocentric):
Date (UTC) HH   RA             Dec           delta elong  mag " sig PA
---- --------  ------------   ------------  ------ -----  --- --------
2021 12 13 23  09 52 40.125   +17 46 34.19   35050 117.5 16.6  349 101
2021 12 14 00  11 18 38.433   +12 29 08.66   24852  96.3 16.5  746 107
2021 12 14 01  14 45 56.641   -06 13 04.90   14102  41.8 19?? 2355 110
2021 12 14 02  22 19 08.881   -16 23 04.90   15616  68.8 16.8 1789  77
2021 12 14 03  01 15 01.951   -02 21 12.87   26634 114.0 16.1  522  69
2021 12 14 04  02 26 40.325   +04 27 44.87   36559 133.0 16.2  224  69
2021 12 14 05  03 09 50.724   +08 21 29.82   44848 144.2 16.4  116  70
2021 12 14 06  03 40 53.301   +10 56 41.56   51761 152.2 16.4 64.1  72
2021 12 14 07  04 05 28.920   +12 49 43.54   57522 158.3 16.5 36.1  73
2021 12 14 08  04 26 12.324   +14 17 11.83   62289 163.2 16.5 19.6  74
2021 12 14 09  04 44 26.399   +15 27 47.69   66172 167.4 16.5 9.64  74
2021 12 14 10  05 01 01.077   +16 26 31.47   69250 170.9 16.4 3.77  73
2021 12 14 11  05 16 29.406   +17 16 28.41   71578 173.6 16.4 .706  62
2021 12 14 12  05 31 15.191   +17 59 38.14   73196 174.7 16.4 .350 106
2021 12 14 13  05 45 37.078   +18 37 19.81   74127 173.7 16.5 .434  64
2021 12 14 14  05 59 51.009   +19 10 25.49   74385 171.4 16.6 2.71  79
2021 12 14 15  06 14 11.938   +19 39 27.19   73975 168.6 16.7 6.56  82
2021 12 14 16  06 28 55.273   +20 04 40.00   72891 165.4 16.8 12.1  84
2021 12 14 17  06 44 18.411   +20 26 01.90   71115 162.1 16.8 19.8  85
2021 12 14 18  07 00 42.716   +20 43 10.02   68621 158.4 16.9 30.0  87
2021 12 14 19  07 18 36.554   +20 55 11.14   65364 154.4 16.9 44.0  88
2021 12 14 20  07 38 40.497   +21 00 21.13   61286 149.8 16.9 63.4  90
2021 12 14 21  08 01 57.249   +20 55 19.43   56300 144.5 16.8 91.7  92
2021 12 14 22  08 30 12.751   +20 33 19.39   50287 138.0 16.8  136  95
2021 12 14 23  09 06 47.668   +19 39 05.07   43074 129.5 16.7  212  98
2021 12 15 00  09 59 09.379   +17 31 46.12   34418 117.0 16.6  368 102
2021 12 15 01  11 28 54.627   +11 47 07.86   24083  94.7 16.5  803 108
2021 12 15 02  15 13 57.909   -08 38 57.98   13500  35.6 19?? 2577 109
2021 12 15 03  22 44 08.781   -14 56 49.53   16315  73.9 16.6 1628  75
2021 12 15 04  01 25 22.116   -01 26 27.14   27408 115.7 16.1  487  69
2021 12 15 05  02 33 38.179   +05 03 05.10   37228 133.8 16.2  213  69
2021 12 15 06  03 15 30.363   +08 48 00.59   45418 144.7 16.4  110  71
2021 12 15 07  03 45 53.089   +11 18 17.02   52248 152.4 16.5 61.5  72
2021 12 15 08  04 10 05.054   +13 08 08.21   57938 158.4 16.5 34.7  73
2021 12 15 09  04 30 33.043   +14 33 19.94   62641 163.3 16.5 19.0  73
2021 12 15 10  04 48 36.452   +15 42 10.47   66467 167.5 16.5 9.48  74
2021 12 15 11  05 05 03.472   +16 39 28.21   69491 171.0 16.5 3.95  72
2021 12 15 12  05 20 26.198   +17 28 11.58   71769 173.7 16.4 1.15  63
2021 12 15 13  05 35 07.889   +18 10 15.94   73338 174.8 16.5 .436  41
2021 12 15 14  05 49 26.872   +18 46 57.54   74221 173.9 16.5 1.30  70
2021 12 15 15  06 03 38.917   +19 19 06.33   74433 171.6 16.6 3.78  79
2021 12 15 16  06 17 58.906   +19 47 12.56   73977 168.8 16.7 7.84  82
2021 12 15 17  06 32 42.277   +20 11 29.62   72844 165.6 16.8 13.6  83
2021 12 15 18  06 48 06.556   +20 31 53.67   71019 162.3 16.8 21.5  85
2021 12 15 19  07 04 33.386   +20 47 59.48   68472 158.6 16.9 32.2  87
2021 12 15 20  07 22 31.644   +20 58 50.40   65159 154.5 16.9 46.6  88
2021 12 15 21  07 42 42.843   +21 02 36.61   61019 150.0 16.9 66.6  90
2021 12 15 22  08 06 11.494   +20 55 46.82   55964 144.6 16.8 95.9  92
2021 12 15 23  08 34 47.353   +20 31 11.25   49870 138.0 16.8  142  95
2021 12 16 00  09 12 00.294   +19 32 34.57   42559 129.3 16.7  222  98
2021 12 16 01  10 05 45.175   +17 15 51.47   33784 116.5 16.5  388 102
2021 12 16 02  11 39 35.120   +11 01 33.78   23313  93.1 16.5  865 108
2021 12 16 03  15 44 25.627   -11 08 04.29   12972  28.8 20?? 2798 108
2021 12 16 04  23 06 50.435   -13 29 07.74   17041  78.5 16.5 1481  74
2021 12 16 05  01 35 13.016   -00 34 05.14   28168 117.2 16.1  455  69
2021 12 16 06  02 40 25.544   +05 37 17.67   37881 134.5 16.3  202  69
2021 12 16 07  03 21 04.964   +09 13 52.25   45976 145.1 16.4  106  71
2021 12 16 08  03 50 50.128   +11 39 25.84   52724 152.6 16.5 59.1  72
2021 12 16 09  04 14 39.634   +13 26 12.56   58343 158.5 16.5 33.5  73
2021 12 16 10  04 34 52.926   +14 49 11.28   62984 163.4 16.5 18.4  73
2021 12 16 11  04 52 46.149   +15 56 18.58   66753 167.5 16.5 9.37  73
2021 12 16 12  05 09 05.855   +16 52 11.56   69725 171.0 16.5 4.17  71
2021 12 16 13  05 24 23.244   +17 39 42.12   71953 173.7 16.4 1.63  63
2021 12 16 14  05 39 01.056   +18 20 41.51   73474 175.0 16.9 1.10  59
2021 12 16 15  05 53 17.327   +18 56 23.06   74310 174.1 16.5 2.20  72
2021 12 16 16  06 07 27.667   +19 27 34.76   74475 171.8 16.6 4.88  78
2021 12 16 17  06 21 46.899   +19 54 45.12   73971 169.0 16.7 9.15  81
2021 12 16 18  06 36 30.494   +20 18 05.84   72791 165.8 16.8 15.2  83
2021 12 16 19  06 51 56.121   +20 37 31.19   70916 162.5 16.8 23.4  85
2021 12 16 20  07 08 25.714   +20 52 33.51   68316 158.8 16.8 34.3  87
2021 12 16 21  07 26 28.684   +21 02 12.57   64946 154.7 16.9 49.2  89
2021 12 16 22  07 46 47.528   +21 04 32.51   60744 150.1 16.9 69.9  90
2021 12 16 23  08 10 28.657   +20 55 50.70   55619 144.7 16.8  100  93
2021 12 17 00  08 39 25.853   +20 28 32.60   49444 138.0 16.7  148  95
2021 12 17 01  09 17 18.835   +19 25 18.59   42035 129.1 16.6  232  98
2021 12 17 02  10 12 32.394   +16 58 28.63   33137 115.9 16.5  409 103
2021 12 17 03  11 50 50.909   +10 11 20.89   22533  91.2 16.5  934 109
2021 12 17 04  16 17 49.272   -13 36 58.33   12527  21.5 22?? 3005 106
2021 12 17 05  23 27 39.125   -12 01 20.42   17795  82.7 16.4 1347  73
2021 12 17 06  01 44 39.830   +00 16 17.53   28922 118.7 16.1  426  69
2021 12 17 07  02 47 03.960   +06 10 32.65   38527 135.2 16.3  192  70
2021 12 17 08  03 26 35.118   +09 39 09.49   46525 145.4 16.4  101  71
2021 12 17 09  03 55 44.669   +12 00 10.47   53193 152.8 16.5 56.8  72
2021 12 17 10  04 19 12.774   +13 43 57.97   58742 158.6 16.5 32.3  73
2021 12 17 11  04 39 12.042   +15 04 46.63   63321 163.4 16.5 17.9  73
2021 12 17 12  04 56 55.559   +16 10 12.45   67033 167.5 16.5 9.29  72
2021 12 17 13  05 13 08.327   +17 04 41.73   69952 171.0 16.5 4.40  70
2021 12 17 14  05 28 20.694   +17 51 00.07   72130 173.8 16.4 2.13  64
2021 12 17 15  05 42 54.910   +18 30 54.75   73603 175.1 17.8 1.81  64
2021 12 17 16  05 57 08.743   +19 05 36.16   74391 174.3 16.5 3.12  73
2021 12 17 17  06 11 17.659   +19 35 50.42   74509 172.0 16.6 6.00  78
2021 12 17 18  06 25 36.435   +20 02 04.35   73957 169.2 16.7 10.5  81
